Home   Weather   Masaya   Past weeks

Flag for Nicaragua Past Weather in Masaya, Nicaragua — Yesterday and Last 2 Weeks

Now
81 °F

Partly cloudy.


Feels Like: 85 °F
Forecast: 73 / 89 °F
Wind: 7 mph from Southeast

Location: Managua A. C. Sandino

Current Time: May 29, 2017 at 11:33:14 pm

Latest Report: May 29, 2017 at 11:00 pm


Visibility: 6 mi

Pressure: 29.92 "Hg

Humidity: 79%

Dew Point: 73 °F

Location of MasayaLocation

Past Weather in Masaya — Graph

°F

Masaya Temperature Yesterday

Maximum temperature yesterday: 91 °F (at 1:00 pm)
Minimum temperature yesterday: 77 °F (at 3:00 am)
Average temperature yesterday: 83 °F

High & Low Weather Summary for the Past Weeks

 TemperatureHumidityPressure
High95 °F (May 25, 3:00 pm)100% (May 16, 8:00 am)29.95 "Hg (May 16, 8:00 am)
Low73 °F (May 29, 6:00 am)46% (May 28, 1:00 pm)29.62 "Hg (May 19, 4:00 pm)
Average83 °F78%29.82 "Hg
* Reported May 14 10:00 pm — May 29 10:00 pm, Masaya. Weather by CustomWeather, © 2017

Note: Actual official high and low records may vary slightly from our data, if they occured in-between our weather recording intervals... More about our weather records

Advertising

Masaya Weather History for the Previous 24 Hours

Scroll right to see more
 ConditionsComfort  
Time TempWeatherWind HumidityBarometerVisibility
10:00 pm
Mon, May 29
81 °FPartly cloudy.7 mph79%29.92 "Hg6 mi
9:00 pm81 °FPassing clouds.7 mph79%29.92 "Hg6 mi
8:00 pm81 °FPassing clouds.9 mph79%29.89 "Hg6 mi
7:00 pm81 °FPassing clouds.12 mph79%29.89 "Hg6 mi
6:00 pm81 °FRain. Scattered clouds.14 mph84%29.86 "Hg6 mi
5:00 pm82 °FRain. Scattered clouds.18 mph79%29.83 "Hg6 mi
4:00 pm90 °FPassing clouds.14 mph59%29.83 "Hg6 mi
3:00 pm91 °FScattered clouds.5 mph52%29.80 "HgN/A
2:00 pm91 °FScattered clouds.9 mph49%29.86 "HgN/A
1:00 pm91 °FScattered clouds.7 mph49%29.86 "HgN/A
12:00 pm91 °FPassing clouds.12 mph52%29.89 "Hg6 mi
11:00 am88 °FScattered clouds.12 mph59%29.89 "Hg6 mi
10:00 am86 °FScattered clouds.9 mph59%29.89 "Hg6 mi
9:00 am84 °FScattered clouds.9 mph62%29.92 "Hg6 mi
8:00 am82 °FScattered clouds.9 mph70%29.92 "Hg6 mi
7:00 am77 °FScattered clouds.9 mph83%29.89 "Hg6 mi
6:00 am73 °FScattered clouds.7 mph83%29.89 "HgN/A
12:00 am79 °FPassing clouds.5 mph79%29.92 "Hg6 mi
11:00 pm
Sun, May 28
81 °FPassing clouds.7 mph74%29.92 "Hg6 mi
Weather by CustomWeather, © 2017

See weather overviewHow to use our weather pages